This is the latest recevied weather packets stored in our database for station/object SV3CQY. If no packets are shown the sender has not sent any weather packets the latest 10 day(s).
| Time | Temp. | Humidity | Pressure | Rain* | Wind** | Luminosity | Snow |
|---|---|---|---|---|---|---|---|
| 1777890629 | 20.56° C | 42% | 1018.2 hPa | 0 mm | - | - | - |
| 1777889114 | 20° C | 43% | 1018.4 hPa | 0 mm | - | - | - |
| 1777888511 | 20° C | 45% | 1018.5 hPa | 0 mm | - | - | - |
| 1777887307 | 20° C | 44% | 1018.7 hPa | 0 mm | - | - | - |
| 1777886715 | 20° C | 43% | 1018.6 hPa | 0 mm | - | - | - |
| 1777885230 | 19.44° C | 44% | 1018.8 hPa | 0 mm | - | - | - |
| 1777884010 | 18.89° C | 48% | 1018.9 hPa | 0 mm | - | - | - |
| 1777883107 | 18.33° C | 46% | 1019 hPa | 0 mm | - | - | - |
| 1777882212 | 17.78° C | 47% | 1019 hPa | 0 mm | - | - | - |
| 1777879211 | 16.67° C | 49% | 1019.1 hPa | 0 mm | - | - | - |
| 1777878036 | 15.56° C | 55% | 1019.3 hPa | 0 mm | - | - | - |
| 1777876232 | 15° C | 60% | 1019.4 hPa | 0 mm | - | - | - |
| 1777872911 | 13.89° C | 62% | 1019.1 hPa | 0 mm | - | - | - |
| 1777871113 | 12.78° C | 62% | 1018.8 hPa | 0 mm | - | - | - |
| 1777869614 | 11.67° C | 70% | 1019 hPa | 0 mm | - | - | - |
| 1777869313 | 11.67° C | 71% | 1019 hPa | 0 mm | - | - | - |
| 1777868128 | 11.11° C | 71% | 1018.8 hPa | 0 mm | - | - | - |
| 1777866615 | 10.56° C | 71% | 1018.6 hPa | 0 mm | - | - | - |
| 1777865433 | 10° C | 72% | 1018.4 hPa | 0 mm | - | - | - |
| 1777864530 | 9.44° C | 72% | 1018.4 hPa | 0 mm | - | - | - |
| 1777864210 | 8.89° C | 67% | 1018.4 hPa | 0 mm | - | - | - |
| 1777863313 | 8.89° C | 65% | 1018.5 hPa | 0 mm | - | - | - |
| 1777858813 | 9.44° C | 67% | 1018.7 hPa | 0 mm | - | - | - |
| 1777856711 | 7.22° C | 69% | 1018.6 hPa | 0 mm | - | - | - |
| 1777856112 | 7.22° C | 68% | 1018.6 hPa | 0 mm | - | - | - |
* Rain latest hour (hover to see other rain measurements)
** Current wind speed in m/s (hover to see current wind gust speed)